CZ-6A DEB, 54608

Orbit data source: Space-Track

CZ-6A DEB, 54608 is space debris in SSO originally from a launch on Fri, 11 Nov 2022 UTC launched from the Taiyaun Space Center, China (TSC). Debris objects in space refer to the collection of defunct objects orbiting the Earth. Examples of debris include non-operational satellites, rocket bodies, and fragments generated from explosions, collisions, or faulty payload assembly.

Loading next visibility...
Identifier
54608, 2022-151NJ
Orbit
SSO
Country
Flag of CNCN / PRC
Related business
Manufacturer
SAST
Mission
Spacecraft
Bus & Motor
Unknown
Mass
Unknown
Launch date (UTC)
2022-11-11 (4 years ago)
Launch vehicle
Unknown
Launch site
Taiyaun Space Center, China (TSC)
Object type
Payload
Rocket body
Debris
Shape & HBR
Unknown shape, 0.1 m
Radar Cross Section
Medium (>0.1 m² and <1 m²)

Expand to show TLE details & history
Last TLE update: 17 hours ago

TLE from 17 hours ago
0 CZ-6A DEB
1 54608U 22151NJ  26262.95868942  .00000448  00000-0  28512-3 0  9990
2 54608  98.8618 252.1301 0065297  86.6844 274.1793 14.07602390197174
Epoch: 2026-09-19T23:00Z
TLE epoch observation values (Epoch: 2026-09-19T23:00:30.765Z)
Latitude
0.00002°
Longitude
-91.85784°
Altitude
867.34 km
Speed
7.42 km/s
True Right ascension
16h 48m 31s
True Declination
0° 00' 00"
Sunlit
Object was in daylight at epoch
Visualization orbit readout
Latitude
Unknown
Longitude
Unknown
Altitude
Unknown
Speed
Unknown
Apparent Right ascension
Unknown
Apparent Declination
Unknown
Sunlit
N/A
Visualization observer readout
Local Sidereal Time
08:49:29
Azimuth
Unknown
Elevation
Unknown
Doppler factor
Unknown
Orbital elements
Apogee altitude
912.064 km
Perigee altitude
817.476 km
Semi-major axis
7,242.907 km
Eccentricity
0.00653
Inclination
98.8618°
RAAN
252.1301°
Arg. of periapsis
86.6844°
True anomaly
273.43262°
Mean anomaly
274.1793°
Eccentric anomaly
273.806°
Mean motion
3.52106 °/min
Orbital period
102.24 mins
BSTAR
0.00028512
Loading maneuver chart data...
Computing Atmospheric mass density...

Documentation

Showing up to 5 results
|